period_start,C,m1,H,J0,J1,J2,J3,J4,J5,JA,JB,JC,JD,JJ,JK,JN,#
2018-02-14 00:03:15,0.22,5.97,0.00,25.57,28.67,31.82,13.98,51.52,1019.06,2017.01,1701.97,1912.12,2126.74,600.63,592.90,42.65,0000 0000 0000 0000 000000
2018-02-14 00:08:17,0.27,5.98,0.00,25.57,28.67,31.82,13.82,51.48,1019.08,2017.00,1699.54,1910.41,2124.81,599.65,591.97,42.71,0000 0000 0000 0000 000000
2018-02-14 00:13:18,0.26,5.99,0.00,25.58,28.67,31.81,13.92,51.51,1019.06,2017.00,1697.21,1908.69,2122.84,600.18,592.48,42.76,0000 0000 0000 0000 000000
2018-02-14 00:18:19,0.18,6.00,0.00,25.57,28.67,31.82,13.90,51.55,1019.06,2017.00,1695.35,1907.54,2121.43,599.97,592.40,42.81,0000 0000 0000 0000 000000
2018-02-14 00:23:20,0.18,6.01,0.00,25.55,28.67,31.85,13.91,51.56,1019.06,2017.00,1693.60,1906.37,2120.06,599.79,592.18,42.86,0000 0000 0000 0000 000000
2018-02-14 00:28:22,0.16,6.02,0.00,25.57,28.67,31.85,13.93,51.56,1019.06,2017.00,1692.06,1905.32,2118.83,599.98,592.29,42.91,0000 0000 0000 0000 000000
2018-02-14 00:33:23,0.18,6.03,0.00,25.56,28.67,31.85,13.89,51.58,1019.06,2017.00,1690.41,1904.37,2117.61,600.28,592.46,42.96,0000 0000 0000 0000 000000
2018-02-14 00:38:24,0.21,6.04,0.00,25.53,28.67,31.86,13.87,51.66,1019.06,2017.00,1688.52,1903.08,2116.05,599.84,592.19,43.01,0000 0000 0000 0000 000000
2018-02-14 00:43:26,0.23,6.05,0.00,25.53,28.67,31.86,13.96,51.64,1019.06,2017.00,1686.42,1901.70,2114.44,600.18,592.65,43.06,0000 0000 0000 0000 000000
2018-02-14 00:48:27,0.26,6.07,0.00,25.52,28.67,31.86,13.91,51.63,1019.06,2017.01,1684.00,1900.13,2112.52,599.87,592.22,43.11,0000 0000 0000 0000 000000
2018-02-14 00:53:29,0.34,6.08,0.00,25.54,28.67,31.87,13.88,51.63,1019.07,2017.00,1681.16,1898.14,2110.39,599.64,592.07,43.16,0000 0000 0000 0000 000000
2018-02-14 00:58:30,0.20,6.10,0.00,25.50,28.67,31.87,13.81,51.55,1019.07,2017.00,1678.90,1896.74,2108.72,599.79,592.21,43.21,0000 0000 0000 0000 000000
2018-02-14 01:03:32,0.14,6.10,0.00,25.50,28.67,31.87,13.92,51.67,1019.06,2017.00,1677.38,1895.84,2107.56,599.65,592.06,43.26,0000 0000 0000 0000 000000
2018-02-14 01:08:33,0.16,6.11,0.00,25.49,28.67,31.89,13.91,51.59,1019.07,2017.01,1675.81,1894.90,2106.42,599.67,592.27,43.31,0000 0000 0000 0000 000000
2018-02-14 01:13:34,0.16,6.12,0.00,25.49,28.67,31.89,13.92,51.67,1019.08,2017.00,1674.17,1893.89,2105.28,599.99,592.50,43.36,0000 0000 0000 0000 000000
2018-02-14 01:18:35,0.16,6.13,0.00,25.51,28.67,31.89,13.86,51.58,1019.08,2017.00,1672.61,1892.97,2104.06,600.09,592.46,43.41,0000 0000 0000 0000 000000
2018-02-14 01:23:37,0.14,6.14,0.00,25.50,28.67,31.90,13.91,51.63,1019.08,2017.00,1671.12,1892.09,2102.96,599.92,592.41,43.46,0000 0000 0000 0000 000000
2018-02-14 01:28:38,0.18,6.15,0.00,25.49,28.69,31.91,14.04,51.70,1019.13,2017.00,1669.62,1891.20,2101.85,600.47,593.00,43.51,0000 0000 0000 0000 000000
2018-02-14 01:33:39,0.14,6.15,0.00,25.45,28.70,31.91,13.96,51.63,1019.16,2017.00,1668.19,1890.33,2100.80,600.50,593.17,43.56,0000 0000 0000 0000 000000
2018-02-14 01:38:41,0.14,6.16,0.00,25.46,28.70,31.91,13.89,51.62,1019.14,2017.00,1666.85,1889.57,2099.81,599.80,592.40,43.61,0000 0000 0000 0000 000000
2018-02-14 01:43:42,0.20,6.17,0.00,25.44,28.70,31.93,14.00,51.64,1019.13,2017.00,1665.17,1888.46,2098.51,600.46,593.07,43.66,0000 0000 0000 0000 000000
2018-02-14 01:48:44,0.18,6.18,0.00,25.44,28.70,31.94,13.91,51.67,1019.08,2017.00,1663.35,1887.30,2097.18,600.31,592.84,43.72,0000 0000 0000 0000 000000
2018-02-14 01:53:45,0.14,6.19,0.00,25.44,28.72,31.95,13.95,51.66,1019.08,2017.00,1662.01,1886.46,2096.08,600.35,592.86,43.77,0000 0000 0000 0000 000000
2018-02-14 01:58:46,0.12,6.19,0.00,25.44,28.72,31.96,13.93,51.72,1019.16,2016.98,1660.79,1885.71,2095.16,599.92,592.56,43.82,0000 0000 0000 0000 000000
2018-02-14 02:03:48,0.14,6.20,0.00,25.43,28.72,31.97,13.97,51.75,1019.41,2016.97,1659.51,1884.82,2094.14,600.72,593.51,43.87,0000 0000 0000 0000 000000
2018-02-14 02:08:49,0.17,6.21,0.00,25.44,28.72,31.98,13.88,51.90,1019.50,2016.95,1657.77,1883.82,2092.93,599.42,592.31,43.92,0000 0000 0000 0000 000000
2018-02-14 02:13:50,0.13,6.22,0.00,25.43,28.74,31.99,13.98,51.87,1019.50,2016.95,1656.45,1882.95,2091.91,600.32,593.25,43.97,0000 0000 0000 0000 000000
2018-02-14 02:18:51,0.18,6.23,0.00,25.41,28.75,31.98,13.92,51.96,1019.42,2016.94,1654.93,1881.97,2090.74,599.96,592.81,44.02,0000 0000 0000 0000 000000
2018-02-14 02:23:52,0.37,6.24,0.00,25.40,28.75,32.00,13.99,51.93,1019.41,2016.85,1652.19,1880.03,2088.53,600.33,593.15,44.07,0000 0000 0000 0000 000000
2018-02-14 02:28:53,0.45,6.27,0.00,25.41,28.76,32.01,13.96,51.95,1019.48,2016.78,1648.10,1876.78,2084.93,599.74,592.65,44.12,0000 0000 0000 0000 000000
2018-02-14 02:33:55,0.08,6.27,0.00,25.42,28.77,32.03,13.92,51.92,1019.48,2016.64,1646.63,1875.89,2083.79,599.94,592.81,44.17,0000 0000 0000 0000 000000
2018-02-14 02:38:56,0.11,6.28,0.00,25.42,28.78,32.04,13.91,51.92,1019.50,2016.40,1645.44,1875.06,2082.86,599.79,592.73,44.22,0000 0000 0000 0000 000000
2018-02-14 02:43:57,0.10,6.29,0.00,25.43,28.80,32.05,13.98,52.01,1019.51,2016.23,1644.24,1874.32,2081.90,600.47,593.33,44.27,0000 0000 0000 0000 000000
2018-02-14 02:48:58,0.13,6.29,0.00,25.41,28.80,32.07,13.92,51.92,1019.42,2016.07,1642.94,1873.54,2080.95,599.82,592.66,44.32,0000 0000 0000 0000 000000
2018-02-14 02:54:00,0.12,6.30,0.00,25.41,28.81,32.08,13.97,51.88,1019.21,2016.05,1641.74,1872.82,2080.01,600.17,592.82,44.37,0000 0000 0000 0000 000000
2018-02-14 02:59:01,0.12,6.30,0.00,25.42,28.82,32.09,13.88,51.93,1019.12,2016.01,1640.66,1872.04,2079.10,600.31,592.91,44.42,0000 0000 0000 0000 000000
2018-02-14 03:04:02,0.14,6.31,0.00,25.42,28.83,32.10,13.91,51.87,1019.34,2016.00,1639.56,1871.27,2078.16,599.97,592.79,44.47,0000 0000 0000 0000 000000
2018-02-14 03:09:04,0.12,6.32,0.00,25.42,28.85,32.12,13.98,51.85,1019.54,2016.00,1638.39,1870.64,2077.26,600.23,593.13,44.52,0000 0000 0000 0000 000000
2018-02-14 03:14:05,0.10,6.32,0.00,25.42,28.85,32.13,13.94,51.92,1019.55,2016.00,1637.22,1869.95,2076.38,599.85,592.76,44.57,0000 0000 0000 0000 000000
2018-02-14 03:19:06,0.13,6.33,0.00,25.41,28.87,32.13,13.99,52.06,1019.54,2016.00,1636.06,1869.10,2075.47,599.81,592.80,44.62,0000 0000 0000 0000 000000
2018-02-14 03:24:08,0.13,6.34,0.00,25.40,28.87,32.15,13.91,51.95,1019.55,2016.00,1634.97,1868.41,2074.64,599.76,592.71,44.68,0000 0000 0000 0000 000000
2018-02-14 03:29:09,0.09,6.34,0.00,25.39,28.89,32.16,13.99,51.86,1019.54,2016.00,1633.89,1867.91,2073.85,600.49,593.42,44.73,0000 0000 0000 0000 000000
2018-02-14 03:34:11,0.13,6.35,0.00,25.37,28.90,32.16,14.02,51.87,1019.55,2016.00,1632.75,1867.11,2072.99,600.26,593.33,44.78,0000 0000 0000 0000 000000
2018-02-14 03:39:12,0.13,6.35,0.00,25.36,28.90,32.16,13.90,51.77,1019.55,2015.99,1631.67,1866.41,2072.10,600.25,593.17,44.83,0000 0000 0000 0000 000000
2018-02-14 03:44:14,0.10,6.36,0.00,25.34,28.92,32.17,13.91,51.81,1019.55,2015.99,1630.54,1865.86,2071.29,600.10,593.19,44.88,0000 0000 0000 0000 000000
2018-02-14 03:49:15,0.12,6.37,0.00,25.34,28.92,32.18,14.01,51.86,1019.57,2015.96,1629.48,1865.06,2070.46,600.72,593.79,44.93,0000 0000 0000 0000 000000
2018-02-14 03:54:16,0.12,6.37,0.00,25.32,28.92,32.19,13.98,51.86,1019.59,2015.96,1628.38,1864.45,2069.72,599.86,592.93,44.98,0000 0000 0000 0000 000000
2018-02-14 03:59:18,0.09,6.38,0.00,25.32,28.94,32.19,13.98,51.94,1019.56,2015.94,1627.27,1863.91,2068.89,599.95,593.02,45.03,0000 0000 0000 0000 000000
2018-02-14 04:04:19,0.12,6.39,0.00,25.32,28.95,32.18,13.97,51.90,1019.58,2015.89,1626.16,1863.09,2068.04,599.89,593.08,45.08,0000 0000 0000 0000 000000
2018-02-14 04:09:20,0.13,6.39,0.00,25.31,28.95,32.18,13.93,51.89,1019.72,2015.85,1625.01,1862.49,2067.16,599.89,593.19,45.13,0000 0000 0000 0000 000000
2018-02-14 04:14:21,0.09,6.40,0.00,25.32,28.95,32.18,13.94,51.90,1019.91,2015.78,1623.93,1861.90,2066.34,600.20,593.47,45.18,0000 0000 0000 0000 000000
2018-02-14 04:19:23,0.12,6.40,0.00,25.30,28.95,32.18,13.89,52.00,1020.01,2015.67,1622.75,1861.07,2065.54,599.54,592.94,45.23,0000 0000 0000 0000 000000
2018-02-14 04:24:24,0.12,6.41,0.00,25.29,28.95,32.18,14.00,52.01,1020.03,2015.60,1621.62,1860.41,2064.71,600.05,593.60,45.28,0000 0000 0000 0000 000000
2018-02-14 04:29:25,0.09,6.41,0.00,25.29,28.95,32.16,13.97,52.06,1020.02,2015.39,1620.48,1859.75,2063.79,599.68,593.18,45.33,0000 0000 0000 0000 000000
2018-02-14 04:34:27,0.11,6.42,0.00,25.30,28.96,32.17,13.93,52.07,1020.03,2015.27,1619.17,1858.93,2062.82,600.27,593.79,45.38,0000 0000 0000 0000 000000
2018-02-14 04:39:28,0.15,6.43,0.00,25.28,28.97,32.16,13.94,52.05,1020.03,2015.34,1617.87,1858.09,2061.90,599.80,593.31,45.43,0000 0000 0000 0000 000000
2018-02-14 04:44:29,0.16,6.43,0.00,25.28,28.97,32.15,13.95,52.01,1020.03,2015.44,1616.58,1857.35,2061.00,600.11,593.58,45.48,0000 0000 0000 0000 000000
2018-02-14 04:49:30,0.12,6.44,0.00,25.26,28.97,32.14,13.94,52.17,1020.03,2015.46,1615.42,1856.64,2060.10,599.87,593.36,45.53,0000 0000 0000 0000 000000
2018-02-14 04:54:31,0.08,6.45,0.00,25.26,28.97,32.16,13.94,52.02,1020.03,2015.35,1614.35,1855.98,2059.24,599.79,593.43,45.59,0000 0000 0000 0000 000000
2018-02-14 04:59:33,0.14,6.45,0.00,25.27,28.97,32.14,14.02,52.16,1020.04,2015.21,1613.19,1855.16,2058.37,600.09,593.65,45.64,0000 0000 0000 0000 000000
2018-02-14 05:04:34,0.08,6.46,0.00,25.27,28.97,32.13,13.91,52.16,1020.05,2015.22,1612.12,1854.81,2057.62,599.98,593.42,45.69,0000 0000 0000 0000 000000
2018-02-14 05:09:35,0.10,6.46,0.00,25.28,28.97,32.15,13.95,52.23,1020.05,2015.16,1611.11,1854.07,2056.94,599.94,593.47,45.74,0000 0000 0000 0000 000000
2018-02-14 05:14:36,0.13,6.47,0.00,25.28,28.97,32.14,14.00,52.23,1020.06,2015.23,1610.08,1853.56,2056.05,600.04,593.46,45.79,0000 0000 0000 0000 000000
2018-02-14 05:19:38,0.15,6.48,0.00,25.27,28.97,32.13,13.97,52.17,1020.18,2015.10,1608.76,1852.64,2055.05,599.79,593.38,45.84,0000 0000 0000 0000 000000
2018-02-14 05:24:39,0.13,6.48,0.00,25.27,28.97,32.14,14.00,52.26,1020.29,2015.12,1607.57,1851.90,2054.09,599.91,593.55,45.89,0000 0000 0000 0000 000000
2018-02-14 05:29:40,0.20,6.49,0.00,25.26,28.97,32.14,13.93,52.28,1020.44,2015.14,1606.03,1850.80,2052.92,599.85,593.60,45.94,0000 0000 0000 0000 000000
2018-02-14 05:34:41,0.23,6.50,0.00,25.27,28.96,32.13,13.96,52.27,1020.47,2015.06,1603.96,1849.42,2051.33,599.74,593.50,45.99,0000 0000 0000 0000 000000
2018-02-14 05:39:43,0.20,6.52,0.00,25.26,28.95,32.12,13.92,52.26,1020.51,2015.05,1602.04,1848.12,2049.79,599.69,593.38,46.04,0000 0000 0000 0000 000000
2018-02-14 05:44:44,0.18,6.53,0.00,25.24,28.95,32.12,13.99,52.30,1020.52,2015.10,1600.42,1847.04,2048.63,600.20,594.02,46.09,0000 0000 0000 0000 000000
2018-02-14 05:49:45,0.15,6.53,0.00,25.25,28.95,32.11,13.98,52.19,1020.52,2015.05,1598.97,1846.07,2047.34,600.22,593.98,46.14,0000 0000 0000 0000 000000
2018-02-14 05:54:46,0.14,6.54,0.00,25.24,28.95,32.09,14.01,52.28,1020.52,2015.09,1597.86,1845.21,2046.80,600.17,594.07,46.19,0000 0000 0000 0000 000000
2018-02-14 05:59:48,0.14,6.55,0.00,25.22,28.95,32.09,14.00,52.24,1020.52,2015.15,1596.70,1844.60,2045.92,600.26,594.13,46.24,0000 0000 0000 0000 000000
2018-02-14 06:04:49,0.21,6.55,0.00,25.23,28.95,32.10,14.02,52.22,1020.52,2015.10,1595.10,1843.42,2044.54,600.25,594.10,46.29,0000 0000 0000 0000 000000
2018-02-14 06:09:51,0.30,6.57,0.00,25.25,28.95,32.10,14.01,52.31,1020.52,2015.11,1592.72,1841.62,2042.54,599.88,593.66,46.34,0000 0000 0000 0000 000000
2018-02-14 06:14:52,0.25,6.58,0.00,25.25,28.95,32.09,13.92,52.24,1020.54,2015.11,1590.61,1840.07,2040.76,599.85,593.72,46.39,0000 0000 0000 0000 000000
2018-02-14 06:19:53,0.20,6.60,0.00,25.23,28.95,32.08,14.00,52.38,1020.63,2015.06,1588.79,1838.79,2039.35,599.99,593.82,46.44,0000 0000 0000 0000 000000
2018-02-14 06:24:55,0.19,6.61,0.00,25.22,28.95,32.09,13.94,52.30,1020.74,2015.05,1587.19,1837.66,2037.94,599.67,593.62,46.49,0000 0000 0000 0000 000000
2018-02-14 06:29:56,0.21,6.61,0.00,25.21,28.95,32.08,13.95,52.29,1020.66,2015.06,1585.51,1836.53,2036.67,599.75,593.57,46.55,0000 0000 0000 0000 000000
2018-02-14 06:34:57,0.20,6.63,0.00,25.20,28.95,32.08,14.02,52.25,1020.67,2015.11,1583.83,1835.36,2035.38,600.09,594.02,46.60,0000 0000 0000 0000 000000
2018-02-14 06:39:59,0.20,6.64,0.00,25.19,28.94,32.07,13.94,52.17,1020.78,2015.14,1582.14,1834.15,2033.94,599.68,593.79,46.65,0000 0000 0000 0000 000000
2018-02-14 06:45:00,0.29,6.65,0.00,25.18,28.93,32.06,14.01,52.20,1020.98,2015.17,1579.83,1832.49,2032.16,600.24,594.42,46.70,0000 0000 0000 0000 000000
2018-02-14 06:50:02,0.32,6.67,0.00,25.17,28.92,32.06,14.02,52.27,1020.99,2015.11,1577.31,1830.54,2029.92,600.25,594.48,46.75,0000 0000 0000 0000 000000
2018-02-14 06:55:03,0.31,6.68,0.00,25.16,28.92,32.07,14.04,52.37,1020.93,2015.14,1574.97,1828.69,2027.87,599.81,593.97,46.80,0000 0000 0000 0000 000000
2018-02-14 07:00:04,0.25,6.70,0.00,25.16,28.92,32.07,14.00,52.31,1020.93,2015.18,1572.85,1827.03,2025.96,600.08,594.37,46.85,0000 0000 0000 0000 000000
2018-02-14 07:05:06,0.20,6.71,0.00,25.14,28.92,32.06,13.97,52.25,1020.97,2015.13,1571.25,1825.71,2024.53,599.84,594.20,46.90,0000 0000 0000 0000 000000
2018-02-14 07:10:07,0.20,6.72,0.00,25.12,28.91,32.03,13.96,52.33,1021.01,2015.09,1569.68,1824.53,2023.14,600.09,594.42,46.95,0000 0000 0000 0000 000000
2018-02-14 07:15:09,0.17,6.73,0.00,25.12,28.90,32.04,14.06,52.26,1021.01,2015.13,1568.28,1823.53,2021.91,600.27,594.63,47.00,0000 0000 0000 0000 000000
2018-02-14 07:20:10,0.17,6.74,0.00,25.12,28.90,32.04,14.02,52.37,1021.01,2015.22,1566.92,1822.58,2020.96,600.22,594.58,47.05,0000 0000 0000 0000 000000
2018-02-14 07:25:12,0.09,6.74,0.00,25.11,28.90,32.03,13.98,52.33,1021.01,2015.23,1565.86,1821.96,2020.10,600.02,594.38,47.10,0000 0000 0000 0000 000000
2018-02-14 07:30:13,0.14,6.75,0.00,25.09,28.87,32.01,14.05,52.35,1021.01,2015.21,1564.82,1821.12,2019.29,600.00,594.36,47.15,0000 0000 0000 0000 000000
2018-02-14 07:35:15,0.12,6.76,0.00,25.07,28.87,32.01,14.00,52.39,1021.01,2015.15,1563.83,1820.50,2018.51,599.76,594.13,47.20,0000 0000 0000 0000 000000
2018-02-14 07:40:16,0.09,6.76,0.00,25.06,28.87,32.02,13.96,52.30,1021.01,2015.24,1562.85,1819.97,2017.81,599.67,594.30,47.25,0000 0000 0000 0000 000000
2018-02-14 07:45:17,0.17,6.77,0.00,25.04,28.85,31.99,14.01,52.29,1021.02,2015.55,1561.90,1819.19,2017.00,599.69,594.24,47.30,0000 0000 0000 0000 000000
2018-02-14 07:50:19,0.14,6.78,0.00,25.03,28.85,31.99,13.97,52.29,1021.03,2015.64,1560.83,1818.55,2016.15,600.06,594.62,47.35,0000 0000 0000 0000 000000
2018-02-14 07:55:20,0.11,6.78,0.00,25.03,28.85,31.99,14.00,52.28,1021.02,2015.62,1559.84,1817.93,2015.45,599.92,594.48,47.40,0000 0000 0000 0000 000000
2018-02-14 08:00:21,0.13,6.79,0.00,25.02,28.84,31.98,14.03,52.32,1021.02,2015.69,1558.86,1817.12,2014.54,600.26,594.76,47.46,0000 0000 0000 0000 000000
2018-02-14 08:05:22,0.14,6.80,0.00,25.01,28.83,31.98,14.00,52.28,1021.02,2015.68,1557.70,1816.49,2013.69,600.15,594.87,47.51,0000 0000 0000 0000 000000
2018-02-14 08:10:24,0.19,6.80,0.00,25.00,28.82,31.96,13.95,52.23,1021.03,2015.92,1556.55,1815.67,2012.66,599.94,594.63,47.56,0000 0000 0000 0000 000000
2018-02-14 08:15:25,0.15,6.81,0.00,25.00,28.82,31.97,13.95,52.26,1021.01,2015.96,1555.28,1814.71,2011.54,599.48,594.09,47.61,0000 0000 0000 0000 000000
2018-02-14 08:20:26,0.18,6.82,0.00,24.97,28.81,31.95,14.03,52.22,1021.03,2015.96,1553.85,1813.71,2010.48,600.09,594.77,47.66,0000 0000 0000 0000 000000
2018-02-14 08:25:28,0.39,6.84,0.00,24.96,28.80,31.94,14.00,52.40,1021.03,2015.95,1551.27,1811.61,2008.11,599.76,594.34,47.71,0000 0000 0000 0000 000000
2018-02-14 08:30:29,0.84,6.87,0.00,24.95,28.80,31.93,13.95,52.32,1021.02,2015.96,1546.12,1807.13,2003.12,599.87,594.58,47.76,0000 0000 0000 0000 000000
2018-02-14 08:35:30,0.80,6.92,0.00,24.94,28.79,31.91,14.00,52.41,1021.04,2015.96,1539.97,1801.74,1997.10,599.87,594.52,47.81,0000 0000 0000 0000 000000
2018-02-14 08:40:32,1.00,6.96,0.00,24.93,28.77,31.91,14.04,52.36,1021.04,2015.97,1534.02,1796.32,1991.02,600.16,594.83,47.86,0000 0000 0000 0000 000000
2018-02-14 08:45:33,0.84,7.01,0.00,24.91,28.77,31.90,14.03,52.24,1021.08,2015.98,1527.49,1790.57,1984.59,600.23,595.12,47.91,0000 0000 0000 0000 000000
2018-02-14 08:50:34,0.39,7.04,0.00,24.90,28.76,31.89,14.02,52.24,1021.07,2015.98,1524.02,1787.61,1981.40,600.17,595.03,47.96,0000 0000 0000 0000 000000
2018-02-14 08:55:35,0.28,7.05,0.00,24.88,28.75,31.88,14.00,52.23,1021.20,2015.97,1521.77,1785.81,1979.41,600.02,594.94,48.01,0000 0000 0000 0000 000000
2018-02-14 09:00:37,0.14,7.06,0.70,24.88,28.75,31.87,14.01,52.19,1021.26,2015.98,1520.53,1784.87,1978.25,599.73,594.69,48.06,0000 0000 0000 0000 000000
2018-02-14 09:05:38,0.16,7.07,1.00,24.87,28.72,31.86,13.97,52.13,1021.21,2015.98,1519.31,1783.86,1977.12,599.95,594.80,48.11,0000 0000 0000 0000 000000
2018-02-14 09:10:39,0.36,7.08,1.00,24.87,28.72,31.86,13.97,52.24,1021.07,2015.99,1517.19,1782.19,1975.16,599.63,594.55,48.16,0000 0000 0000 0000 000000
2018-02-14 09:15:41,0.45,7.11,1.00,24.86,28.70,31.85,13.98,52.20,1021.14,2015.98,1514.02,1779.56,1972.18,599.67,594.66,48.21,0000 0000 0000 0000 000000
2018-02-14 09:20:42,0.40,7.13,1.00,24.85,28.70,31.85,13.98,52.13,1021.41,2015.99,1510.99,1777.06,1969.39,600.11,595.25,48.26,0000 0000 0000 0000 000000
2018-02-14 09:25:44,0.32,7.15,1.00,24.84,28.68,31.84,14.03,52.21,1021.48,2015.99,1508.57,1775.16,1967.19,600.29,595.45,48.31,0000 0000 0000 0000 000000
2018-02-14 09:30:45,0.35,7.16,0.30,24.83,28.67,31.81,14.06,52.27,1021.49,2015.99,1506.12,1773.21,1964.98,600.21,595.44,48.36,0000 0000 0000 0000 000000
2018-02-14 09:35:47,0.37,7.18,0.00,24.83,28.65,31.81,14.06,52.25,1021.50,2015.99,1503.60,1771.10,1962.51,600.41,595.70,48.42,0000 0000 0000 0000 000000
2018-02-14 09:40:48,0.54,7.21,0.00,24.81,28.65,31.80,13.99,52.19,1021.49,2015.99,1499.98,1768.17,1959.26,599.69,595.01,48.47,0000 0000 0000 0000 000000
2018-02-14 09:45:49,0.60,7.24,0.00,24.79,28.62,31.79,13.98,52.18,1021.47,2015.99,1495.93,1764.83,1955.56,599.86,595.21,48.52,0000 0000 0000 0000 000000
2018-02-14 09:50:51,0.52,7.26,0.00,24.78,28.62,31.77,14.02,52.24,1021.48,2015.99,1492.19,1761.67,1951.92,600.49,595.84,48.57,0000 0000 0000 0000 000000
2018-02-14 09:55:53,0.69,7.30,0.00,24.77,28.60,31.76,14.00,52.30,1021.50,2015.99,1487.70,1757.89,1947.60,599.80,595.03,48.62,0000 0000 0000 0000 000000
2018-02-14 10:00:54,0.59,7.33,0.73,24.77,28.60,31.74,14.05,52.33,1021.50,2015.99,1483.48,1754.33,1943.64,600.32,595.68,48.67,0000 0000 0000 0000 000000
2018-02-14 10:05:55,0.48,7.35,1.00,24.76,28.58,31.76,14.07,52.31,1021.50,2015.99,1479.95,1751.47,1940.42,599.98,595.33,48.72,0000 0000 0000 0000 000000
2018-02-14 10:10:57,0.57,7.38,1.00,24.75,28.57,31.76,14.03,52.37,1021.50,2015.99,1476.02,1748.34,1936.87,599.77,595.16,48.77,0000 0000 0000 0000 000000
2018-02-14 10:15:58,0.71,7.41,1.00,24.73,28.55,31.72,14.04,52.38,1021.51,2016.00,1471.46,1744.62,1932.60,600.19,595.58,48.82,0000 0000 0000 0000 000000
2018-02-14 10:21:00,0.62,7.45,1.00,24.72,28.55,31.71,13.99,52.50,1021.52,2016.00,1466.95,1740.86,1928.43,599.95,595.41,48.87,0000 0000 0000 0000 000000
2018-02-14 10:26:01,0.45,7.47,1.00,24.72,28.53,31.70,14.02,52.48,1021.53,2016.02,1463.62,1738.22,1925.39,599.82,595.28,48.92,0000 0000 0000 0000 000000
2018-02-14 10:31:02,0.37,7.49,1.00,24.70,28.52,31.72,14.03,52.52,1021.72,2016.04,1461.03,1736.15,1923.02,599.94,595.52,48.97,0000 0000 0000 0000 000000
2018-02-14 10:36:03,0.24,7.51,1.00,24.69,28.51,31.70,14.05,52.50,1021.80,2016.04,1459.15,1734.66,1921.37,600.05,595.73,49.02,0000 0000 0000 0000 000000
2018-02-14 10:41:05,0.23,7.52,1.00,24.67,28.50,31.69,13.98,52.53,1021.86,2016.06,1457.49,1733.47,1919.93,599.73,595.43,49.07,0000 0000 0000 0000 000000
2018-02-14 10:46:06,0.23,7.53,1.00,24.67,28.50,31.69,14.04,52.51,1021.86,2016.06,1455.76,1732.13,1918.55,599.80,595.62,49.12,0000 0000 0000 0000 000000
2018-02-14 10:51:07,0.21,7.55,1.00,24.67,28.47,31.65,13.98,52.58,1021.88,2016.10,1454.11,1730.96,1917.25,599.66,595.38,49.17,0000 0000 0000 0000 000000
2018-02-14 10:56:09,0.23,7.56,1.00,24.65,28.47,31.65,14.04,52.46,1021.90,2016.20,1452.60,1729.87,1915.94,600.23,595.90,49.22,0000 0000 0000 0000 000000
2018-02-14 11:01:10,0.24,7.57,0.20,24.64,28.45,31.65,14.01,52.38,1021.85,2016.46,1451.12,1728.80,1914.68,600.22,596.02,49.27,0000 0000 0000 0000 000000
2018-02-14 11:06:11,0.21,7.58,0.00,24.62,28.45,31.65,14.00,52.47,1021.98,2016.55,1449.71,1727.79,1913.42,599.81,595.75,49.32,0000 0000 0000 0000 000000
2018-02-14 11:11:13,0.18,7.59,0.00,24.61,28.44,31.63,14.02,52.40,1021.94,2016.71,1448.51,1726.90,1912.27,600.30,596.25,49.38,0000 0000 0000 0000 000000
2018-02-14 11:16:14,0.23,7.60,0.00,24.60,28.42,31.63,14.01,52.42,1021.76,2016.74,1446.95,1725.80,1910.89,599.91,595.76,49.43,0000 0000 0000 0000 000000
2018-02-14 11:21:16,0.28,7.61,0.00,24.58,28.42,31.62,14.08,52.52,1021.76,2016.88,1445.16,1724.53,1909.40,600.23,596.08,49.48,0000 0000 0000 0000 000000
2018-02-14 11:26:17,0.28,7.63,0.00,24.57,28.40,31.60,14.00,52.46,1021.84,2016.89,1443.16,1723.01,1907.69,599.95,596.07,49.53,0000 0000 0000 0000 000000
2018-02-14 11:31:18,0.38,7.64,0.00,24.56,28.40,31.59,14.00,52.52,1021.91,2016.95,1440.69,1721.14,1905.56,599.70,595.78,49.58,0000 0000 0000 0000 000000
2018-02-14 11:36:20,0.44,7.67,0.00,24.55,28.39,31.56,14.06,52.53,1021.87,2016.95,1437.90,1718.96,1902.98,600.27,596.31,49.63,0000 0000 0000 0000 000000
2018-02-14 11:41:21,0.54,7.69,0.00,24.53,28.37,31.58,14.10,52.61,1021.88,2016.98,1434.28,1716.14,1899.62,600.19,596.32,49.68,0000 0000 0000 0000 000000
2018-02-14 11:46:23,0.44,7.72,0.00,24.51,28.36,31.55,14.06,52.69,1021.97,2016.98,1431.00,1713.65,1896.76,600.10,596.05,49.73,0000 0000 0000 0000 000000
2018-02-14 11:51:24,0.32,7.74,0.00,24.50,28.35,31.54,14.08,52.62,1021.97,2016.99,1428.73,1711.86,1894.69,600.05,596.13,49.78,0000 0000 0000 0000 000000
2018-02-14 11:56:25,0.28,7.75,0.00,24.48,28.34,31.52,14.02,52.58,1021.89,2016.99,1426.78,1710.40,1892.90,599.74,595.95,49.83,0000 0000 0000 0000 000000
2018-02-14 12:01:26,0.31,7.77,0.00,24.46,28.32,31.53,14.01,52.64,1021.94,2016.99,1424.74,1708.84,1891.07,600.17,596.35,49.88,0000 0000 0000 0000 000000
2018-02-14 12:06:28,0.33,7.78,0.00,24.44,28.31,31.50,13.97,52.63,1021.88,2016.99,1422.47,1707.08,1889.04,600.09,596.31,49.93,0000 0000 0000 0000 000000
2018-02-14 12:11:29,0.34,7.80,0.00,24.41,28.30,31.47,14.09,52.62,1021.93,2016.99,1420.12,1705.33,1886.99,599.85,596.16,49.98,0000 0000 0000 0000 000000
2018-02-14 12:16:30,0.36,7.82,0.00,24.40,28.28,31.47,14.08,52.70,1021.96,2016.99,1417.52,1703.55,1884.90,600.28,596.63,50.03,0000 0000 0000 0000 000000
2018-02-14 12:21:31,0.28,7.83,0.00,24.39,28.27,31.46,14.05,52.66,1021.95,2016.99,1415.39,1701.96,1883.17,600.08,596.42,50.08,0000 0000 0000 0000 000000
2018-02-14 12:26:33,0.29,7.85,0.00,24.37,28.25,31.46,14.11,52.89,1021.88,2017.00,1413.53,1700.69,1881.67,599.92,596.21,50.13,0000 0000 0000 0000 000000
2018-02-14 12:31:34,0.24,7.86,0.00,24.34,28.24,31.43,14.03,52.77,1021.88,2017.04,1411.87,1699.56,1880.28,600.22,596.51,50.18,0000 0000 0000 0000 000000
2018-02-14 12:36:35,0.18,7.87,0.00,24.32,28.22,31.42,14.09,52.62,1021.92,2017.04,1410.75,1698.38,1878.84,599.97,596.48,50.23,0000 0000 0000 0000 000000
2018-02-14 12:41:37,0.16,7.88,0.00,24.29,28.21,31.39,14.05,52.52,1021.98,2017.05,1409.63,1697.60,1877.94,599.98,596.61,50.29,0000 0000 0000 0000 000000
2018-02-14 12:46:38,0.14,7.89,0.00,24.27,28.20,31.38,14.06,52.74,1021.98,2017.08,1408.46,1696.98,1877.07,600.09,596.81,50.34,0000 0000 0000 0000 000000
2018-02-14 12:51:40,0.17,7.89,0.00,24.24,28.17,31.36,14.01,52.75,1021.95,2017.30,1407.70,1696.29,1876.62,599.95,596.56,50.39,0000 0000 0000 0000 000000
2018-02-14 12:56:41,0.09,7.90,0.00,24.21,28.17,31.35,14.07,52.74,1021.97,2017.54,1406.88,1695.95,1876.00,600.17,596.92,50.44,0000 0000 0000 0000 000000